Weather History for Paducah, KY

Change the Weather History Date:

Friday, September 14, 2012

  Actual Average Record
Temperature  
Mean Temperature 69 °F 71 °F  
Max Temperature 75 °F 83 °F 102 °F (1939)
Min Temperature 62 °F 59 °F 41 °F (1964)
Degree Days  
Heating Degree Days 0 1  
Month to date heating degree days 0 2  
Since 1 July heating degree days 0 3  
Cooling Degree Days 4 6  
Month to date cooling degree days 128 117  
Year to date cooling degree days 1909 1430  
Growing Degree Days 18 (Base 50)    
Moisture  
Dew Point 61 °F    
Average Humidity 81    
Maximum Humidity 93    
Minimum Humidity 68    
Precipitation  
Precipitation 0.00 in 0.13 in 2.34 in (1978)
Month to date precipitation 3.56 1.65  
Year to date precipitation 19.68 34.13  
Snow  
Snow 0.00 in 0.00 in 0.00 in (2002)
Month to date snowfall 0.0 0.0  
Since 1 July snowfall 0.0 0.0  
Since 1 September snowfall 0.0 0.0  
Snow Depth 0.00 in    
Sea Level Pressure  
Sea Level Pressure 30.23 in    
Wind  
Wind Speed 6 mph (NNE)    
Max Wind Speed 13 mph    
Max Gust Speed 16 mph    
Visibility 10 miles    
Events      
T = Trace of Precipitation, MM = Missing Value Source: NWS Daily Summary

Daily Weather History Graph

Daily Weather History Graph

Search for Another Location

Airport:

Trip Planner

Search our weather history database for the weather conditions in past years. The results will help you decide how hot, cold, wet, or windy it might be!

Date:

Astronomy

Sep. 14, 2012 Rise Set
Actual Time 6:36 AM CDT 7:03 PM CDT
Civil Twilight 6:10 AM CDT 7:29 PM CDT
Nautical Twilight 5:40 AM CDT 8:00 PM CDT
Astronomical Twilight 5:08 AM CDT 8:31 PM CDT
Moon 5:02 AM CDT (9/14) 5:59 PM CDT (9/14)
Length of Visible Light 13h 18m
Length of Day
12h 26m
Waning Crescent, 2% of the Moon is Illuminated
Sep 14
Waning Crescent
Sep 15
New
Sep 22
First Quarter
Sep 29
Full
Oct 8
Last Quarter

Hourly Weather History & Observations

Time (CDT) Temp. Dew Point Humidity Pressure Visibility Wind Dir Wind Speed Gust Speed Precip Events Conditions
12:53 AM 64.0 °F 61.0 °F 90% 30.20 in 10.0 mi Calm Calm - N/A   Clear
1:53 AM 63.0 °F 61.0 °F 93% 30.20 in 9.0 mi Calm Calm - N/A   Mostly Cloudy
2:53 AM 63.0 °F 61.0 °F 93% 30.18 in 8.0 mi Calm Calm - N/A   Clear
3:53 AM 64.9 °F 62.1 °F 90% 30.19 in 9.0 mi NNW 3.5 mph - N/A   Mostly Cloudy
4:53 AM 64.0 °F 61.0 °F 90% 30.19 in 8.0 mi Calm Calm - N/A   Scattered Clouds
5:53 AM 64.0 °F 61.0 °F 90% 30.19 in 7.0 mi Calm Calm - N/A   Mostly Cloudy
6:53 AM 63.0 °F 61.0 °F 93% 30.22 in 7.0 mi North 5.8 mph - N/A   Scattered Clouds
7:53 AM 63.0 °F 60.1 °F 90% 30.23 in 10.0 mi North 6.9 mph - N/A   Scattered Clouds
8:53 AM 64.9 °F 59.0 °F 81% 30.24 in 10.0 mi North 6.9 mph - N/A   Clear
9:53 AM 66.9 °F 60.1 °F 79% 30.25 in 10.0 mi North 8.1 mph - N/A   Clear
10:53 AM 71.1 °F 61.0 °F 70% 30.25 in 10.0 mi NNE 8.1 mph - N/A   Clear
11:53 AM 73.0 °F 62.1 °F 68% 30.25 in 10.0 mi North 10.4 mph - N/A   Clear
12:53 PM 73.9 °F 63.0 °F 68% 30.25 in 10.0 mi NNE 5.8 mph - N/A   Clear
1:53 PM 73.0 °F 63.0 °F 71% 30.24 in 10.0 mi NNE 8.1 mph - N/A   Clear
2:53 PM 73.9 °F 63.0 °F 68% 30.22 in 10.0 mi North 11.5 mph - N/A   Partly Cloudy
3:06 PM 73.4 °F 62.6 °F 69% 30.23 in 9.0 mi NNE 10.4 mph - N/A   Mostly Cloudy
3:53 PM 73.9 °F 63.0 °F 68% 30.22 in 10.0 mi North 9.2 mph - N/A   Overcast
4:38 PM 73.4 °F 62.6 °F 69% 30.22 in 10.0 mi NNE 9.2 mph - N/A   Scattered Clouds
4:53 PM 72.0 °F 62.1 °F 71% 30.22 in 10.0 mi NNE 12.7 mph - N/A   Partly Cloudy
5:41 PM 71.6 °F 62.6 °F 73% 30.23 in 10.0 mi NNE 9.2 mph - N/A   Mostly Cloudy
5:53 PM 72.0 °F 62.1 °F 71% 30.22 in 10.0 mi North 10.4 mph - N/A   Overcast
6:53 PM 70.0 °F 61.0 °F 73% 30.23 in 10.0 mi NNE 11.5 mph - N/A   Overcast
7:53 PM 68.0 °F 61.0 °F 78% 30.23 in 10.0 mi NE 5.8 mph - N/A   Scattered Clouds
8:53 PM 66.9 °F 61.0 °F 81% 30.25 in 10.0 mi Calm Calm - N/A   Clear
9:53 PM 64.9 °F 61.0 °F 87% 30.25 in 10.0 mi NE 5.8 mph - N/A   Clear
10:53 PM 64.9 °F 61.0 °F 87% 30.25 in 10.0 mi NNE 5.8 mph - N/A   Partly Cloudy
11:53 PM 64.0 °F 60.1 °F 87% 30.25 in 10.0 mi NE 5.8 mph - N/A   Mostly Cloudy